sat.trackr.live / text

‹ back to catalog

STARLINK-33683

NORAD 63573 · 2025-076E

PAYLOAD ACTIVE UNKNOWN

§ Identity

Operator
Country
US
Launch date
2025-04-14
Launch site
AFETR
Launch vehicle
Mass (kg)
RCS (m²)

Purposes: comms

External: N2YO · Heavens-Above · Gunter

§ Orbital elements

Epoch: 2026-09-20T03:05:32.586432Z

Period
94.27 min
Inclination
42.9995°
Eccentricity
0.0001527
Mean motion
15.27588633 rev/d
Perigee alt
482.0 km
Apogee alt
484.1 km
Semi-major
6,861.2 km
B*
6.3479e-4
RAAN
303.9306°
Arg perigee
283.2640°
Mean anomaly
76.8041°
Rev number
8,156

§ Raw data

STARLINK-336831 63573U 25076E   26263.12884938  .00017252  00000+0  63479-3 0  99942 63573  42.9995 303.9306 0001527 283.2640  76.8041 15.27588633 81562

JSON: /api/v1/satellites/63573 · /tle

For live sub-satellite position, see the globe view (requires WebGL).

§ Visibility from observer

Set your observer location to see the next 7 days of passes ≥ 10°. The values pass through the URL so the page stays shareable.

No JS? Fill the form by hand. The geolocation button needs JavaScript.